Вернуться в каталог

STARLINK-34612

АктивенСвязьVLEO
NORAD 64773·PAYLOAD·🇺🇸 United States

Запущен Jul 8, 2025 с Cape Canaveral Space Force Station

Loading…

Ближайшие Пролёты (ближайшие 24 часа)

TLE

СвежийSource: CelesTrak SupGP

Эпоха: Sep 15, 2026, 03:35 UTC

1 64773C 25147U   26258.14979167 -.00025291  00000+0 -74739-3 0  2584
2 64773  53.1578  78.5143 0001167  90.8994  78.5895 15.34396974    14

Отслеживайте STARLINK-34612 в реальном времени с AllMySat

Download on the App Store